When you browse on this site, cookies collect data to enhance your experience and personalize the content and advertising you see.
Visit our Privacy Policy to learn more. By continuing to use the site, you agree to this use of cookies and data.
  • In Denmark
  • List of Countries
  • For 7 days
  • Water Temperature
  • Satellite Maps
  • Weather Map
  • Weather Widgets
  • user-avatar
    Login

    Hourly Weather Alekseevka

    Today, 18 July, Thursday

    Time Temperature Precipitation Wind Pressure Humidity
    00:00 +15°C° 0 mm 2 mps 735 mmHg 95%
    01:00 +14°C° 0 mm 2 mps 735 mmHg 95%
    02:00 +14°C° 0 mm 2 mps 735 mmHg 95%
    03:00 +14°C° 0 mm 2 mps 735 mmHg 95%
    04:00 +14°C° 0 mm 2 mps 735 mmHg 95%
    05:00 +14°C° 0 mm 2 mps 735 mmHg 94%
    06:00 +15°C° 0 mm 2 mps 735 mmHg 93%
    07:00 +16°C° 0 mm 2 mps 735 mmHg 88%
    08:00 +18°C° 0 mm 2 mps 735 mmHg 83%
    09:00 +19°C° 0 mm 3 mps 735 mmHg 78%
    10:00 +20°C° 0 mm 3 mps 736 mmHg 73%
    11:00 +21°C° 0 mm 4 mps 736 mmHg 68%
    12:00 +22°C° 0 mm 4 mps 736 mmHg 63%
    13:00 +22°C° 0.2 mm 4 mps 736 mmHg 63%
    14:00 +22°C° 0.2 mm 5 mps 736 mmHg 64%
    15:00 +22°C° 0.2 mm 5 mps 736 mmHg 64%
    16:00 +22°C° 0.2 mm 5 mps 736 mmHg 67%
    17:00 +21°C° 0.2 mm 5 mps 736 mmHg 70%
    18:00 +21°C° 0.2 mm 5 mps 736 mmHg 73%
    19:00 +19°C° 0.1 mm 4 mps 736 mmHg 78%
    20:00 +18°C° 0.1 mm 4 mps 736 mmHg 84%
    21:00 +15°C° 0.1 mm 4 mps 736 mmHg 89%
    22:00 +14°C° 0 mm 4 mps 736 mmHg 90%
    23:00 +14°C° 0 mm 4 mps 736 mmHg 91%

    Tomorrow, 19 July, Friday

    Time Temperature Precipitation Wind Pressure Humidity
    00:00 +13°C° 0 mm 4 mps 737 mmHg 92%
    01:00 +13°C° 0 mm 4 mps 737 mmHg 93%
    02:00 +13°C° 0 mm 4 mps 737 mmHg 94%
    03:00 +12°C° 0 mm 4 mps 737 mmHg 95%
    04:00 +12°C° 0 mm 4 mps 737 mmHg 95%
    05:00 +13°C° 0 mm 4 mps 737 mmHg 94%
    06:00 +13°C° 0 mm 5 mps 737 mmHg 94%
    07:00 +14°C° 0 mm 5 mps 737 mmHg 90%
    08:00 +15°C° 0 mm 5 mps 738 mmHg 86%
    09:00 +17°C° 0 mm 5 mps 738 mmHg 82%
    10:00 +19°C° 0.1 mm 6 mps 738 mmHg 77%
    11:00 +20°C° 0.1 mm 6 mps 738 mmHg 72%
    12:00 +21°C° 0.1 mm 7 mps 738 mmHg 68%
    13:00 +21°C° 0.3 mm 7 mps 738 mmHg 69%
    14:00 +21°C° 0.3 mm 7 mps 738 mmHg 71%
    15:00 +21°C° 0.3 mm 7 mps 738 mmHg 73%
    16:00 +21°C° 0.1 mm 7 mps 738 mmHg 74%
    17:00 +20°C° 0.1 mm 6 mps 738 mmHg 75%
    18:00 +20°C° 0.1 mm 6 mps 739 mmHg 76%
    19:00 +19°C° 0 mm 5 mps 739 mmHg 80%
    20:00 +16°C° 0 mm 5 mps 739 mmHg 84%
    21:00 +15°C° 0 mm 4 mps 739 mmHg 88%
    22:00 +15°C° 0 mm 4 mps 740 mmHg 90%
    23:00 +14°C° 0 mm 4 mps 740 mmHg 91%

    Day after tomorrow, 20 July, Saturday

    Time Temperature Precipitation Wind Pressure Humidity
    00:00 +14°C° 0 mm 4 mps 740 mmHg 93%
    01:00 +14°C° 0 mm 4 mps 740 mmHg 93%
    02:00 +13°C° 0 mm 4 mps 740 mmHg 93%
    03:00 +13°C° 0 mm 4 mps 740 mmHg 94%
    04:00 +13°C° 0 mm 4 mps 740 mmHg 92%
    05:00 +13°C° 0 mm 5 mps 741 mmHg 90%
    06:00 +14°C° 0 mm 5 mps 741 mmHg 88%
    07:00 +15°C° 0 mm 5 mps 741 mmHg 82%
    08:00 +17°C° 0 mm 6 mps 741 mmHg 77%
    09:00 +19°C° 0 mm 6 mps 741 mmHg 72%
    10:00 +20°C° 0.2 mm 7 mps 742 mmHg 72%
    11:00 +20°C° 0.2 mm 7 mps 742 mmHg 71%
    12:00 +21°C° 0.2 mm 7 mps 742 mmHg 71%
    13:00 +21°C° 0.2 mm 7 mps 742 mmHg 72%
    14:00 +21°C° 0.2 mm 6 mps 742 mmHg 72%
    15:00 +21°C° 0.2 mm 6 mps 742 mmHg 72%
    16:00 +21°C° 0.2 mm 6 mps 742 mmHg 73%
    17:00 +20°C° 0.2 mm 5 mps 742 mmHg 75%
    18:00 +20°C° 0.2 mm 5 mps 743 mmHg 76%
    19:00 +19°C° 0.1 mm 5 mps 743 mmHg 81%
    20:00 +18°C° 0.1 mm 4 mps 743 mmHg 86%
    21:00 +17°C° 0.1 mm 3 mps 743 mmHg 91%
    22:00 +15°C° 0 mm 4 mps 743 mmHg 92%
    23:00 +15°C° 0 mm 4 mps 743 mmHg 93%

    21 July, Sunday

    Time Temperature Precipitation Wind Pressure Humidity
    00:00 +14°C° 0 mm 4 mps 743 mmHg 94%
    01:00 +14°C° 0 mm 4 mps 743 mmHg 95%
    02:00 +13°C° 0 mm 3 mps 743 mmHg 96%
    03:00 +13°C° 0 mm 3 mps 743 mmHg 96%
    04:00 +13°C° 0 mm 3 mps 743 mmHg 95%
    05:00 +14°C° 0 mm 4 mps 743 mmHg 95%
    06:00 +14°C° 0 mm 4 mps 743 mmHg 94%
    07:00 +15°C° 0 mm 4 mps 744 mmHg 90%
    08:00 +18°C° 0 mm 4 mps 744 mmHg 85%
    09:00 +19°C° 0 mm 4 mps 744 mmHg 80%
    10:00 +20°C° 0.1 mm 4 mps 744 mmHg 76%
    11:00 +21°C° 0.1 mm 4 mps 744 mmHg 73%
    12:00 +22°C° 0.1 mm 4 mps 744 mmHg 69%
    13:00 +22°C° 0.4 mm 4 mps 744 mmHg 69%
    14:00 +22°C° 0.4 mm 4 mps 744 mmHg 70%
    15:00 +22°C° 0.4 mm 4 mps 743 mmHg 71%
    16:00 +22°C° 0.2 mm 4 mps 743 mmHg 71%
    17:00 +22°C° 0.2 mm 3 mps 744 mmHg 71%
    18:00 +22°C° 0.2 mm 3 mps 744 mmHg 71%
    19:00 +21°C° 0.2 mm 3 mps 744 mmHg 77%
    20:00 +19°C° 0.2 mm 3 mps 744 mmHg 82%
    21:00 +17°C° 0.2 mm 2 mps 744 mmHg 88%
    22:00 +17°C° 0 mm 2 mps 744 mmHg 89%
    23:00 +16°C° 0 mm 2 mps 744 mmHg 90%

    22 July, Monday

    Time Temperature Precipitation Wind Pressure Humidity
    00:00 +16°C° 0 mm 2 mps 744 mmHg 91%
    01:00 +15°C° 0 mm 2 mps 744 mmHg 91%
    02:00 +15°C° 0 mm 2 mps 744 mmHg 92%
    03:00 +15°C° 0 mm 2 mps 744 mmHg 92%
    04:00 +15°C° 0 mm 2 mps 744 mmHg 91%
    05:00 +15°C° 0 mm 2 mps 744 mmHg 90%
    06:00 +15°C° 0 mm 2 mps 744 mmHg 88%
    07:00 +17°C° 0 mm 2 mps 744 mmHg 83%
    08:00 +18°C° 0 mm 2 mps 744 mmHg 77%
    09:00 +20°C° 0 mm 2 mps 744 mmHg 72%
    10:00 +21°C° 0.1 mm 3 mps 744 mmHg 67%
    11:00 +22°C° 0.1 mm 3 mps 744 mmHg 63%
    12:00 +24°C° 0.1 mm 3 mps 744 mmHg 58%
    13:00 +24°C° 0.2 mm 3 mps 743 mmHg 59%
    14:00 +24°C° 0.2 mm 3 mps 743 mmHg 61%
    15:00 +24°C° 0.2 mm 3 mps 743 mmHg 62%
    16:00 +24°C° 0.2 mm 3 mps 743 mmHg 64%
    17:00 +24°C° 0.2 mm 2 mps 743 mmHg 66%
    18:00 +23°C° 0.2 mm 2 mps 743 mmHg 68%
    19:00 +21°C° 0 mm 2 mps 743 mmHg 73%
    20:00 +20°C° 0 mm 1 mps 743 mmHg 79%
    21:00 +18°C° 0 mm 1 mps 743 mmHg 84%
    22:00 +18°C° 0 mm 1 mps 743 mmHg 84%
    23:00 +18°C° 0 mm 1 mps 742 mmHg 85%

    23 July, Tuesday

    Time Temperature Precipitation Wind Pressure Humidity
    00:00 +16°C° 0 mm 1 mps 742 mmHg 85%
    01:00 +16°C° 0 mm 2 mps 742 mmHg 87%
    02:00 +15°C° 0 mm 2 mps 742 mmHg 88%
    03:00 +15°C° 0 mm 2 mps 742 mmHg 89%
    04:00 +15°C° 0 mm 2 mps 742 mmHg 89%
    05:00 +15°C° 0 mm 2 mps 742 mmHg 90%
    06:00 +15°C° 0 mm 2 mps 742 mmHg 90%
    07:00 +17°C° 0 mm 2 mps 742 mmHg 83%
    08:00 +18°C° 0 mm 2 mps 742 mmHg 76%
    09:00 +20°C° 0 mm 3 mps 742 mmHg 69%
    10:00 +21°C° 0 mm 3 mps 742 mmHg 64%
    11:00 +22°C° 0 mm 3 mps 742 mmHg 60%
    12:00 +22°C° 0 mm 3 mps 742 mmHg 55%
    13:00 +24°C° 0 mm 3 mps 742 mmHg 55%
    14:00 +23°C° 0 mm 4 mps 742 mmHg 55%
    15:00 +23°C° 0 mm 4 mps 742 mmHg 55%
    16:00 +22°C° 0 mm 3 mps 741 mmHg 58%
    17:00 +22°C° 0 mm 3 mps 741 mmHg 61%
    18:00 +22°C° 0 mm 3 mps 741 mmHg 64%
    19:00 +20°C° 0 mm 3 mps 741 mmHg 66%
    20:00 +18°C° 0 mm 2 mps 742 mmHg 69%
    21:00 +16°C° 0 mm 2 mps 742 mmHg 72%
    22:00 +15°C° 0 mm 2 mps 742 mmHg 77%
    23:00 +13°C° 0 mm 3 mps 742 mmHg 82%
    Show more